CW8593 Weather Reports


Display with metric or nautical units.
time (UTC)temp
F
wind
direction
speed
MPH
gust
MPH
rain 1hr
in
rain 24hr
in
rain mn
in
humidity
%
barometer
mb
20170330064319 56 225 0.0 0.0 0.00 0.00 0.00 75 1024.8
20170330062819 53 225 0.0 0.0 0.00 0.00 0.00 76 1024.6
20170330061319 52 225 0.0 0.0 0.00 0.00 0.00 76 1024.5
20170330060319 52 225 0.0 2.0 0.00 0.00 0.00 76 1024.5
20170330055821 52 225 0.0 2.0 0.00 0.00 0.00 76 1024.5
20170330053819 52 225 0.0 1.0 0.00 0.00 0.00 76 1024.2
20170330052820 52 225 0.0 0.0 0.00 0.00 0.00 76 1024.2
20170330052320 52 225 0.0 0.0 0.00 0.00 0.00 76 1024.2
20170330051320 52 225 1.0 2.0 0.00 0.00 0.00 76 1024.2
20170330050819 52 225 0.0 0.0 0.00 0.00 0.00 76 1024.2
20170330045819 52 225 1.0 2.0 0.00 0.00 0.00 76 1024.2
20170330044320 52 225 0.0 1.0 0.00 0.00 0.00 76 1024.2
20170330042820 52 225 1.0 2.0 0.00 0.00 0.00 76 1024.2
20170330040819 52 225 1.0 2.0 0.00 0.00 0.00 76 1024.1
20170330035320 52 225 1.0 2.0 0.00 0.00 0.00 76 1024.1
20170330034820 52 225 0.0 1.0 0.00 0.00 0.00 76 1024.1
20170330034320 52 225 0.0 0.0 0.00 0.00 0.00 76 1024.1
20170330033819 52 225 1.0 2.0 0.00 0.00 0.00 76 1024.1
20170330031319 53 225 0.0 2.0 0.00 0.00 0.00 76 1024.2
20170330030819 53 225 2.0 3.0 0.00 0.00 0.00 76 1024.2
20170330030319 53 225 1.0 2.0 0.00 0.00 0.00 76 1024.2
20170330025321 53 225 0.0 0.0 0.00 0.00 0.00 76 1024.2
20170330024820 53 225 0.0 1.0 0.00 0.00 0.00 76 1024.3
20170330023820 53 225 0.0 0.0 0.00 0.00 0.00 76 1024.3
20170330023319 53 225 0.0 0.0 0.00 0.00 0.00 76 1024.3
20170330022320 53 225 0.0 2.0 0.00 0.00 0.00 76 1024.3
20170330021320 53 225 1.0 3.0 0.00 0.00 0.00 76 1024.4
20170330015819 53 225 0.0 1.0 0.00 0.00 0.00 76 1024.7
20170330015320 53 225 0.0 2.0 0.00 0.00 0.00 76 1024.7
20170330014319 53 225 0.0 2.0 0.00 0.00 0.00 76 1024.7
20170330013820 53 225 0.0 0.0 0.00 0.00 0.00 76 1024.7
20170330013319 54 225 1.0 2.0 0.00 0.00 0.00 76 1024.7
20170330012820 54 225 0.0 2.0 0.00 0.00 0.00 76 1024.7
20170330012320 54 225 0.0 0.0 0.00 0.00 0.00 76 1024.8
20170330011819 54 225 0.0 0.0 0.00 0.00 0.00 76 1024.7
20170330005820 54 225 0.0 0.0 0.00 0.00 0.00 76 1024.7
20170330004319 54 225 2.0 3.0 0.00 0.00 0.00 76 1024.8
20170330003319 55 225 0.0 1.0 0.00 0.00 0.00 75 1024.8
20170330002819 55 225 0.0 1.0 0.00 0.00 0.00 75 1024.9
20170330002320 55 225 0.0 2.0 0.00 0.00 0.00 75 1025.0
20170330001319 55 225 2.0 3.0 0.00 0.00 0.00 75 1025.0
20170330000819 56 225 0.0 2.0 0.00 0.00 0.00 75 1025.0
20170330000320 55 225 1.0 2.0 0.00 0.00 0.00 75 1025.1
20170329234820 56 225 0.0 0.0 0.00 0.00 0.00 75 1025.1
20170329234319 56 225 0.0 2.0 0.00 0.00 0.00 75 1025.2
20170329233819 56 225 1.0 2.0 0.00 0.00 0.00 75 1025.1
20170329233319 56 225 0.0 1.0 0.00 0.00 0.00 75 1025.2
20170329231821 56 225 0.0 2.0 0.00 0.00 0.00 75 1025.3
20170329231320 56 225 1.0 3.0 0.00 0.00 0.00 74 1025.3
20170329230320 56 225 0.0 3.0 0.00 0.00 0.00 75 1025.3
20170329225819 56 225 2.0 3.0 0.00 0.00 0.00 74 1025.3
20170329224319 55 225 3.0 5.0 0.00 0.00 0.00 74 1025.3
20170329223819 56 225 2.0 3.0 0.00 0.00 0.00 74 1025.3
20170329223321 56 225 0.0 3.0 0.00 0.00 0.00 74 1025.4
20170329222820 56 225 1.0 3.0 0.00 0.00 0.00 74 1025.3
20170329222319 56 225 0.0 1.0 0.00 0.00 0.00 74 1025.3
20170329221820 56 225 1.0 2.0 0.00 0.00 0.00 73 1025.4
20170329220320 57 225 0.0 2.0 0.00 0.00 0.00 73 1025.4
20170329215819 57 225 0.0 0.0 0.00 0.00 0.00 73 1025.4
20170329215319 57 225 0.0 0.0 0.00 0.00 0.00 73 1025.4
20170329214819 57 225 0.0 0.0 0.00 0.00 0.00 73 1025.4
20170329213819 57 225 0.0 0.0 0.00 0.00 0.00 73 1025.4
20170329211820 58 225 0.0 1.0 0.00 0.00 0.00 72 1025.3
20170329211320 58 225 1.0 2.0 0.00 0.00 0.00 72 1025.3
20170329210819 58 225 0.0 3.0 0.00 0.00 0.00 71 1025.3
20170329205820 58 225 0.0 0.0 0.00 0.00 0.00 70 1025.3
20170329205319 58 225 1.0 2.0 0.00 0.00 0.00 70 1025.3
20170329204819 58 225 0.0 1.0 0.00 0.00 0.00 70 1025.2
20170329202820 59 225 2.0 3.0 0.00 0.00 0.00 68 1025.1
20170329202321 59 225 0.0 2.0 0.00 0.00 0.00 67 1025.1
20170329201820 59 225 1.0 3.0 0.00 0.00 0.00 67 1024.9
20170329200819 59 225 0.0 1.0 0.00 0.00 0.00 67 1024.9
20170329195819 60 225 0.0 0.0 0.00 0.00 0.00 67 1024.8
20170329194819 60 225 0.0 3.0 0.00 0.00 0.00 67 1024.7
20170329194319 60 225 1.0 3.0 0.00 0.00 0.00 67 1024.7
20170329193320 60 225 1.0 3.0 0.00 0.00 0.00 67 1024.5
20170329192819 60 225 0.0 1.0 0.00 0.00 0.00 67 1024.5
20170329192319 60 225 0.0 0.0 0.00 0.00 0.00 68 1024.5
20170329190819 61 225 0.0 0.0 0.00 0.00 0.00 69 1024.3
20170329185320 61 225 0.0 2.0 0.00 0.00 0.00 68 1024.2
20170329184820 62 225 1.0 2.0 0.00 0.00 0.00 68 1024.1
20170329183819 61 225 2.0 2.0 0.00 0.00 0.00 68 1024.0
20170329183320 62 225 1.0 2.0 0.00 0.00 0.00 69 1024.0
20170329182820 62 225 0.0 1.0 0.00 0.00 0.00 69 1023.9
20170329181819 62 225 2.0 3.0 0.00 0.00 0.00 70 1023.9
20170329181319 62 225 1.0 3.0 0.00 0.00 0.00 71 1023.8
20170329180819 62 225 0.0 2.0 0.00 0.00 0.00 70 1023.8
20170329180319 63 225 2.0 3.0 0.00 0.00 0.00 70 1023.8
20170329175819 63 225 3.0 3.0 0.00 0.00 0.00 69 1023.8
20170329174819 63 211 2.0 7.0 0.00 0.00 0.00 69 1023.8
20170329174318 63 215 3.0 7.0 0.00 0.00 0.00 69 1023.7
20170329173820 63 214 3.0 8.0 0.00 0.00 0.00 68 1023.7
20170329173319 63 220 6.0 10.0 0.00 0.00 0.00 68 1023.7
20170329172819 63 225 5.0 10.0 0.00 0.00 0.00 69 1023.7
20170329172320 64 203 6.0 9.0 0.00 0.00 0.00 69 1023.7
20170329171819 64 208 5.0 10.0 0.00 0.00 0.00 69 1023.7
20170329170819 65 191 4.0 9.0 0.00 0.00 0.00 68 1023.7
20170329165319 65 218 5.0 8.0 0.00 0.00 0.00 62 1023.6
20170329164819 65 205 5.0 10.0 0.00 0.00 0.00 61 1023.6
20170329162319 65 215 3.0 10.0 0.00 0.00 0.00 60 1023.6
20170329161319 66 200 5.0 8.0 0.00 0.00 0.00 58 1023.6
20170329160819 65 260 2.0 9.0 0.00 0.00 0.00 56 1023.6
20170329155319 65 200 6.0 10.0 0.00 0.00 0.00 55 1023.6
20170329153819 66 211 5.0 9.0 0.00 0.00 0.00 55 1023.7
20170329152820 66 196 3.0 7.0 0.00 0.00 0.00 55 1023.7
20170329152319 66 203 4.0 9.0 0.00 0.00 0.00 55 1023.8
20170329151819 66 221 6.0 9.0 0.00 0.00 0.00 55 1023.8
20170329151318 66 182 4.0 7.0 0.00 0.00 0.00 58 1023.8
20170329150319 66 215 3.0 7.0 0.00 0.00 0.00 57 1023.9
20170329145819 66 175 5.0 10.0 0.00 0.00 0.00 56 1023.9
20170329144819 66 215 5.0 8.0 0.00 0.00 0.00 55 1024.1
20170329144319 66 167 4.0 8.0 0.00 0.00 0.00 55 1024.2
20170329143819 66 225 7.0 10.0 0.00 0.00 0.00 53 1024.2
20170329143318 66 186 4.0 10.0 0.00 0.00 0.00 55 1024.2
20170329142320 66 200 6.0 12.0 0.00 0.00 0.00 56 1024.3
20170329141819 66 208 6.0 10.0 0.00 0.00 0.00 56 1024.4
20170329140320 66 191 4.0 9.0 0.00 0.00 0.00 60 1024.5
20170329135819 66 172 3.0 8.0 0.00 0.00 0.00 58 1024.5
20170329135319 66 219 5.0 8.0 0.00 0.00 0.00 59 1024.6
20170329134319 65 173 4.0 7.0 0.00 0.00 0.00 60 1024.7
20170329133818 65 159 4.0 12.0 0.00 0.00 0.00 60 1024.9
20170329132818 65 148 6.0 9.0 0.00 0.00 0.00 59 1024.9
20170329131819 66 156 6.0 12.0 0.00 0.00 0.00 60 1024.9
20170329131320 66 195 5.0 9.0 0.00 0.00 0.00 60 1024.9
20170329130818 66 153 5.0 8.0 0.00 0.00 0.00 59 1025.1
20170329125818 66 145 3.0 9.0 0.00 0.00 0.00 62 1025.1
20170329124818 66 153 3.0 8.0 0.00 0.00 0.00 62 1025.2
20170329123819 66 205 3.0 8.0 0.00 0.00 0.00 62 1025.4
20170329120819 66 165 3.0 7.0 0.00 0.00 0.00 63 1025.6
20170329120318 66 170 4.0 9.0 0.00 0.00 0.00 63 1025.6
20170329114819 66 183 3.0 6.0 0.00 0.00 0.00 63 1025.7
20170329113819 65 156 3.0 7.0 0.00 0.00 0.00 64 1025.9
20170329113319 65 161 4.0 8.0 0.00 0.00 0.00 63 1025.9
20170329112319 65 170 4.0 7.0 0.00 0.00 0.00 63 1026.0
20170329110318 65 146 3.0 7.0 0.00 0.00 0.00 63 1026.1
20170329105818 66 139 4.0 7.0 0.00 0.00 0.00 62 1026.1
20170329105319 65 150 3.0 8.0 0.00 0.00 0.00 63 1026.1
20170329104318 65 157 4.0 8.0 0.00 0.00 0.00 63 1026.2
20170329103818 65 180 3.0 7.0 0.00 0.00 0.00 62 1026.2
20170329102818 66 159 2.0 5.0 0.00 0.00 0.00 62 1026.2
20170329102318 65 155 1.0 5.0 0.00 0.00 0.00 62 1026.3
20170329101319 65 141 2.0 5.0 0.00 0.00 0.00 62 1026.3
20170329100818 66 161 3.0 6.0 0.00 0.00 0.00 61 1026.4
20170329100318 65 140 2.0 6.0 0.00 0.00 0.00 62 1026.4
20170329095818 65 140 2.0 3.0 0.00 0.00 0.00 62 1026.4
20170329094818 65 137 3.0 5.0 0.00 0.00 0.00 63 1026.3
20170329093319 64 171 2.0 5.0 0.00 0.00 0.00 64 1026.3
20170329091319 65 146 2.0 5.0 0.00 0.00 0.00 65 1026.2
20170329090819 65 145 2.0 6.0 0.00 0.00 0.00 65 1026.2
20170329090318 65 185 2.0 6.0 0.00 0.00 0.00 63 1026.2
20170329085319 65 188 0.0 2.0 0.00 0.00 0.00 63 1026.1
20170329084318 64 188 0.0 3.0 0.00 0.00 0.00 64 1026.1
20170329083821 64 188 1.0 3.0 0.00 0.00 0.00 64 1026.0
20170329082819 63 188 1.0 3.0 0.00 0.00 0.00 64 1026.0
20170329082319 63 188 2.0 3.0 0.00 0.00 0.00 64 1025.9
20170329081818 63 188 1.0 3.0 0.00 0.00 0.00 65 1025.9
20170329080818 63 188 0.0 2.0 0.00 0.00 0.00 67 1025.8
20170329080318 63 188 0.0 1.0 0.00 0.00 0.00 68 1025.8
20170329074820 61 188 0.0 2.0 0.00 0.00 0.00 71 1025.8
20170329073818 60 188 0.0 3.0 0.00 0.00 0.00 72 1025.7
20170329073318 60 188 2.0 5.0 0.00 0.00 0.00 72 1025.7
20170329071818 58 188 0.0 0.0 0.00 0.00 0.00 75 1025.6
20170329071319 57 188 0.0 1.0 0.00 0.00 0.00 75 1025.6
20170329070818 57 188 0.0 1.0 0.00 0.00 0.00 75 1025.6
20170329070319 56 188 0.0 1.0 0.00 0.00 0.00 75 1025.5
20170329065820 55 188 1.0 3.0 0.00 0.00 0.00 76 1025.5
20170329065318 54 188 0.0 2.0 0.00 0.00 0.00 76 1025.5
20170329064818 54 188 1.0 2.0 0.00 0.00 0.00 76 1025.6